DW8167 Weather Reports


Display with metric or nautical units.
time (UTC)temp
F
wind
direction
speed
MPH
gust
MPH
rain 1hr
in
rain 24hr
in
rain mn
in
humidity
%
barometer
mb
20260505021859 63 351 0.0 0.0 0.00 0.00 0.00 75 1014.4
20260505021355 63 351 0.0 0.0 0.00 0.00 0.00 74 1014.2
20260505020851 62 351 0.0 0.0 0.00 0.00 0.00 76 1014.2
20260505020347 62 351 0.0 0.0 0.00 0.00 0.00 74 1014.4
20260505015844 63 351 0.0 0.0 0.00 0.00 0.00 74 1014.3
20260505015341 64 351 0.0 0.0 0.00 0.00 0.00 72 1014.1
20260505014838 64 351 0.0 0.0 0.00 0.00 0.00 72 1014.0
20260505014335 65 351 0.0 0.0 0.00 0.00 0.00 71 1014.1
20260505013832 65 351 0.0 0.0 0.00 0.00 0.00 69 1014.1
20260505013329 65 352 0.0 0.0 0.00 0.00 0.00 69 1014.0
20260505012827 66 352 0.0 0.0 0.00 0.00 0.00 69 1013.7
20260505012325 66 351 0.0 0.0 0.00 0.00 0.00 66 1013.9
20260505011820 66 351 0.0 0.0 0.00 0.00 0.00 65 1013.8
20260505011318 66 351 0.0 0.0 0.00 0.00 0.00 66 1013.8
20260505010813 66 351 0.0 0.0 0.00 0.00 0.00 66 1013.7
20260505010309 67 352 0.0 0.0 0.00 0.00 0.00 65 1013.5
20260505005806 67 352 0.0 0.0 0.00 0.00 0.00 62 1013.6
20260505005304 67 351 0.0 0.0 0.00 0.00 0.00 64 1013.6
20260505004800 67 351 0.0 0.0 0.00 0.00 0.00 61 1013.7
20260505004256 68 351 0.0 0.0 0.00 0.00 0.00 61 1013.6
20260505003754 68 351 0.0 0.0 0.00 0.00 0.00 60 1013.7
20260505003251 69 351 0.0 0.0 0.00 0.00 0.00 59 1013.6
20260505002747 69 351 0.0 0.0 0.00 0.00 0.00 57 1013.6
20260505002245 69 351 0.0 0.0 0.00 0.00 0.00 58 1013.5
20260505001742 70 351 0.0 0.0 0.00 0.00 0.00 57 1013.5
20260505001240 71 350 0.0 0.0 0.00 0.00 0.00 56 1013.6
20260505000737 71 351 0.0 0.0 0.00 0.00 0.00 56 1013.5
20260505000235 72 350 0.0 0.0 0.00 0.00 0.00 53 1013.5
20260504235731 72 351 0.0 0.0 0.00 0.00 0.00 55 1013.6
20260504235227 73 350 0.0 0.0 0.00 0.00 0.00 53 1013.6
20260504234725 73 358 0.0 0.0 0.00 0.00 0.00 50 1013.7
20260504234222 74 358 0.0 0.0 0.00 0.00 0.00 49 1013.5
20260504233718 75 358 0.0 0.0 0.00 0.00 0.00 46 1013.7
20260504233214 75 358 0.0 0.0 0.00 0.00 0.00 46 1013.8
20260504232711 75 352 0.0 2.0 0.00 0.00 0.00 45 1013.9
20260504232208 76 350 1.0 6.0 0.00 0.00 0.00 44 1013.7
20260504231705 76 350 0.0 0.0 0.00 0.00 0.00 45 1013.8
20260504231201 76 344 0.0 2.0 0.00 0.00 0.00 44 1013.8
20260504230657 76 14 0.0 6.0 0.00 0.00 0.00 44 1013.8
20260504230156 76 351 2.0 2.0 0.00 0.00 0.00 44 1014.0
20260504225655 77 0 0.0 4.0 0.00 0.00 0.00 42 1013.8
20260504225150 77 358 0.0 0.0 0.00 0.00 0.00 43 1013.9
20260504224647 77 323 4.0 4.0 0.00 0.00 0.00 41 1013.8
20260504224144 77 2 0.0 0.0 0.00 0.00 0.00 43 1013.9
20260504223641 78 339 2.0 8.0 0.00 0.00 0.00 41 1014.0
20260504223136 79 276 4.0 6.0 0.00 0.00 0.00 39 1014.0
20260504222634 79 346 3.0 6.0 0.00 0.00 0.00 37 1014.2
20260504222131 79 343 3.0 6.0 0.00 0.00 0.00 39 1014.2
20260504221628 79 7 2.0 4.0 0.00 0.00 0.00 40 1014.1
20260504221125 78 283 6.0 6.0 0.00 0.00 0.00 38 1014.3
20260504220621 79 354 2.0 4.0 0.00 0.00 0.00 40 1014.1
20260504220120 78 346 0.0 2.0 0.00 0.00 0.00 42 1014.1
20260504215615 79 323 2.0 4.0 0.00 0.00 0.00 40 1014.4
20260504215113 80 328 4.0 6.0 0.00 0.00 0.00 40 1014.3
20260504214608 79 9 2.0 6.0 0.00 0.00 0.00 39 1014.3
20260504214105 79 344 4.0 6.0 0.00 0.00 0.00 38 1014.4
20260504213601 80 298 5.0 8.0 0.00 0.00 0.00 38 1014.2
20260504213058 80 346 3.0 6.0 0.00 0.00 0.00 38 1014.3
20260504212554 80 333 2.0 6.0 0.00 0.00 0.00 40 1014.0
20260504212052 80 311 5.0 8.0 0.00 0.00 0.00 38 1014.4
20260504211548 80 9 3.0 8.0 0.00 0.00 0.00 39 1014.4
20260504211045 80 344 4.0 6.0 0.00 0.00 0.00 38 1014.5
20260504210542 80 345 2.0 4.0 0.00 0.00 0.00 39 1014.4
20260504210039 80 318 4.0 6.0 0.00 0.00 0.00 39 1014.4
20260504205537 80 305 5.0 8.0 0.00 0.00 0.00 38 1014.3
20260504205035 80 326 7.0 12.0 0.00 0.00 0.00 41 1014.4
20260504204533 79 335 4.0 8.0 0.00 0.00 0.00 42 1014.4
20260504204032 78 317 3.0 8.0 0.00 0.00 0.00 40 1014.5
20260504203529 77 355 1.0 2.0 0.00 0.00 0.00 43 1014.5
20260504203026 79 6 2.0 4.0 0.00 0.00 0.00 40 1014.5
20260504202522 80 332 4.0 6.0 0.00 0.00 0.00 38 1014.5
20260504202019 80 348 2.0 4.0 0.00 0.00 0.00 36 1014.4
20260504201516 79 330 4.0 10.0 0.00 0.00 0.00 37 1014.8
20260504201014 80 285 9.0 10.0 0.00 0.00 0.00 41 1014.9
20260504200510 79 4 3.0 4.0 0.00 0.00 0.00 37 1014.7
20260504200007 80 277 9.0 12.0 0.00 0.00 0.00 38 1015.0
20260504195503 80 345 3.0 6.0 0.00 0.00 0.00 40 1015.1
20260504194959 79 8 3.0 6.0 0.00 0.00 0.00 40 1015.1
20260504194455 79 321 6.0 10.0 0.00 0.00 0.00 39 1015.0
20260504193951 80 8 2.0 6.0 0.00 0.00 0.00 41 1015.3
20260504193449 80 295 5.0 10.0 0.00 0.00 0.00 39 1015.4
20260504192947 79 336 4.0 10.0 0.00 0.00 0.00 36 1015.3
20260504192444 80 355 0.0 0.0 0.00 0.00 0.00 41 1015.5
20260504191943 79 357 0.0 0.0 0.00 0.00 0.00 39 1015.4
20260504191441 79 0 2.0 4.0 0.00 0.00 0.00 39 1015.8
20260504190936 79 1 0.0 0.0 0.00 0.00 0.00 42 1015.7
20260504190432 78 352 3.0 6.0 0.00 0.00 0.00 40 1015.8
20260504185929 78 318 4.0 8.0 0.00 0.00 0.00 44 1016.0
20260504185426 78 314 6.0 6.0 0.00 0.00 0.00 43 1015.9
20260504184922 79 351 4.0 8.0 0.00 0.00 0.00 45 1016.0
20260504184418 80 6 2.0 2.0 0.00 0.00 0.00 45 1016.0
20260504183914 78 337 3.0 4.0 0.00 0.00 0.00 45 1016.2
20260504183411 78 356 2.0 4.0 0.00 0.00 0.00 45 1016.1
20260504182909 78 310 5.0 6.0 0.00 0.00 0.00 45 1016.3
20260504182406 78 357 2.0 6.0 0.00 0.00 0.00 46 1016.3
20260504181903 79 358 0.0 0.0 0.00 0.00 0.00 46 1016.4
20260504181400 78 316 6.0 8.0 0.00 0.00 0.00 49 1016.4
20260504180859 78 342 6.0 10.0 0.00 0.00 0.00 49 1016.3
20260504180357 79 359 2.0 4.0 0.00 0.00 0.00 45 1016.4
20260504175855 78 6 0.0 0.0 0.00 0.00 0.00 45 1016.6
20260504175351 78 317 4.0 6.0 0.00 0.00 0.00 47 1016.6
20260504174849 78 337 4.0 6.0 0.00 0.00 0.00 45 1016.7
20260504174347 77 352 0.0 2.0 0.00 0.00 0.00 49 1016.6
20260504173843 77 351 1.0 4.0 0.00 0.00 0.00 45 1016.8
20260504173340 76 348 2.0 4.0 0.00 0.00 0.00 47 1016.8
20260504172837 77 353 0.0 2.0 0.00 0.00 0.00 48 1016.8
20260504172334 77 340 1.0 2.0 0.00 0.00 0.00 48 1016.8
20260504171830 76 334 0.0 0.0 0.00 0.00 0.00 49 1016.9
20260504171327 77 354 1.0 4.0 0.00 0.00 0.00 51 1017.4
20260504170824 78 28 0.0 2.0 0.00 0.00 0.00 46 1017.3
20260504170321 78 353 0.0 0.0 0.00 0.00 0.00 46 1017.4
20260504160239 72 36 0.0 2.0 0.00 0.00 0.00 54 1018.0
20260504150705 66 357 0.0 4.0 0.00 0.00 0.00 68 1018.3
20260504150202 66 343 3.0 4.0 0.00 0.00 0.00 68 1018.3
20260504141131 61 355 0.0 0.0 0.00 0.00 0.00 78 1018.6
20260504140627 60 8 0.0 0.0 0.00 0.00 0.00 78 1018.8
20260504140123 60 349 0.0 0.0 0.00 0.00 0.00 79 1018.7
20260504130551 52 349 0.0 0.0 0.00 0.00 0.00 94 1018.9
20260504110439 46 359 0.0 0.0 0.00 0.00 0.00 99 1018.3
20260504100401 47 359 0.0 0.0 0.00 0.00 0.00 99 1018.0
20260504081754 48 359 0.0 0.0 0.00 0.00 0.00 99 1017.9
20260504081251 48 359 0.0 0.0 0.00 0.00 0.00 99 1017.9
20260504080747 48 358 0.0 0.0 0.00 0.00 0.00 99 1017.8
20260504080244 48 358 0.0 0.0 0.00 0.00 0.00 99 1018.1
20260504070211 49 358 0.0 0.0 0.00 0.00 0.00 99 1018.0
20260504060132 50 358 0.0 0.0 0.00 0.00 0.00 99 1018.8
20260504050600 51 358 0.0 0.0 0.00 0.00 0.00 97 1019.0
20260504045554 51 358 0.0 0.0 0.00 0.00 0.00 97 1018.9
20260504045049 51 358 0.0 0.0 0.00 0.00 0.00 96 1019.1
20260504044547 51 358 0.0 0.0 0.00 0.00 0.00 96 1019.2
20260504044043 51 358 0.0 0.0 0.00 0.00 0.00 96 1019.2
20260504043541 52 358 0.0 0.0 0.00 0.00 0.00 96 1019.3
20260504043038 52 358 0.0 0.0 0.00 0.00 0.00 96 1019.2
20260504042535 51 358 0.0 0.0 0.00 0.00 0.00 97 1019.2
20260504042032 51 358 0.0 0.0 0.00 0.00 0.00 97 1019.4
20260504041527 51 358 0.0 0.0 0.00 0.00 0.00 96 1019.1
20260504041024 52 358 0.0 0.0 0.00 0.00 0.00 96 1019.3
20260504040521 52 358 0.0 0.0 0.00 0.00 0.00 95 1019.4
20260504040018 52 358 0.0 0.0 0.00 0.00 0.00 95 1019.2
20260504035515 52 358 0.0 0.0 0.00 0.00 0.00 94 1019.5
20260504035011 53 358 0.0 0.0 0.00 0.00 0.00 94 1019.7
20260504034509 53 358 0.0 0.0 0.00 0.00 0.00 94 1019.5
20260504034006 53 358 0.0 0.0 0.00 0.00 0.00 94 1019.5
20260504033504 53 358 0.0 0.0 0.00 0.00 0.00 92 1019.8
20260504033001 53 358 0.0 0.0 0.00 0.00 0.00 91 1019.5
20260504032457 53 358 0.0 0.0 0.00 0.00 0.00 92 1019.5
20260504031954 53 358 0.0 0.0 0.00 0.00 0.00 90 1019.4
20260504031451 53 358 0.0 0.0 0.00 0.00 0.00 89 1019.5
20260504030948 54 358 0.0 0.0 0.00 0.00 0.00 91 1019.1
20260504030445 54 358 0.0 0.0 0.00 0.00 0.00 90 1019.2
20260504025940 54 358 0.0 0.0 0.00 0.00 0.00 89 1019.4
20260504025438 55 358 0.0 0.0 0.00 0.00 0.00 88 1019.2
20260504024935 55 358 0.0 0.0 0.00 0.00 0.00 89 1019.2
20260504024432 55 358 0.0 0.0 0.00 0.00 0.00 89 1019.2
20260504023929 55 358 0.0 0.0 0.00 0.00 0.00 89 1019.1
20260504023425 55 358 0.0 0.0 0.00 0.00 0.00 89 1019.2
20260504022921 55 358 0.0 0.0 0.00 0.00 0.00 89 1019.0
20260504022417 55 358 0.0 0.0 0.00 0.00 0.00 87 1018.9